FW4584 Weather Reports


Display with metric or nautical units.
time (UTC)temp
F
wind
direction
speed
MPH
gust
MPH
rain 1hr
in
rain 24hr
in
rain mn
in
humidity
%
barometer
mb
20260906164634 75 178 4.0 14.0 0.00 0.00 0.00 85 1017.3
20260906163735 75 167 5.0 11.0 0.00 0.00 0.00 84 1017.3
20260906162834 76 169 5.0 14.0 0.00 0.00 0.00 84 1017.4
20260906161934 76 175 5.0 12.0 0.00 0.00 0.00 85 1017.5
20260906161034 75 160 4.0 12.0 0.00 0.00 0.00 85 1017.5
20260906160134 76 170 3.0 9.0 0.00 0.00 0.00 85 1017.6
20260906155234 76 172 2.0 9.0 0.00 0.00 0.00 84 1017.5
20260906154334 76 175 3.0 11.0 0.00 0.00 0.00 84 1017.5
20260906153434 76 157 3.0 10.0 0.00 0.00 0.00 85 1017.5
20260906152534 76 173 3.0 10.0 0.00 0.00 0.00 84 1017.7
20260906151634 76 166 4.0 10.0 0.00 0.00 0.00 85 1017.6
20260906150734 76 153 4.0 9.0 0.00 0.00 0.00 85 1017.5
20260906145834 76 160 4.0 12.0 0.00 0.00 0.00 85 1017.5
20260906144934 75 167 2.0 9.0 0.00 0.00 0.00 86 1017.4
20260906144034 75 175 3.0 9.0 0.00 0.00 0.00 87 1017.4
20260906143134 74 162 3.0 10.0 0.00 0.00 0.00 88 1017.3
20260906142234 74 151 2.0 9.0 0.00 0.00 0.00 89 1017.3
20260906140434 73 155 3.0 10.0 0.00 0.00 0.00 92 1017.2
20260906135534 72 156 3.0 8.0 0.00 0.00 0.00 93 1017.2
20260906132834 70 142 1.0 6.0 0.00 0.00 0.00 95 1017.1
20260906131934 70 156 1.0 4.0 0.00 0.00 0.00 95 1017.1
20260906131034 69 131 2.0 7.0 0.00 0.00 0.00 95 1017.0
20260906130134 69 126 1.0 6.0 0.00 0.00 0.00 95 1016.8
20260906125234 68 132 1.0 3.0 0.00 0.00 0.00 95 1016.8
20260906124334 68 148 1.0 4.0 0.00 0.00 0.00 95 1016.8
20260906123433 68 128 0.0 3.0 0.00 0.00 0.00 95 1016.9
20260906122534 68 122 0.0 3.0 0.00 0.00 0.00 95 1016.9
20260906121633 67 116 0.0 4.0 0.00 0.00 0.00 94 1016.8
20260906120733 67 126 0.0 1.0 0.00 0.00 0.00 94 1016.8
20260906115834 67 127 0.0 1.0 0.00 0.00 0.00 94 1016.9
20260906114933 67 127 0.0 1.0 0.00 0.00 0.00 94 1016.9
20260906113133 68 119 0.0 2.0 0.00 0.00 0.00 94 1016.7
20260906112233 68 108 0.0 4.0 0.00 0.00 0.00 94 1016.7
20260906111333 68 128 0.0 2.0 0.00 0.00 0.00 94 1016.6
20260906110433 68 157 1.0 5.0 0.00 0.00 0.00 94 1016.5
20260906105533 68 166 0.0 4.0 0.00 0.00 0.00 94 1016.6
20260906104633 68 163 1.0 4.0 0.00 0.00 0.00 94 1016.6
20260906103733 68 159 0.0 4.0 0.00 0.00 0.00 94 1016.5
20260906102833 68 149 0.0 5.0 0.00 0.00 0.00 94 1016.4
20260906101933 68 165 0.0 5.0 0.00 0.00 0.00 94 1016.4
20260906100133 68 0 0.0 0.0 0.00 0.00 0.00 94 1016.4
20260906095233 68 154 0.0 2.0 0.00 0.00 0.00 94 1016.2
20260906094333 68 154 0.0 1.0 0.00 0.00 0.00 94 1016.2
20260906093433 69 154 0.0 1.0 0.00 0.00 0.00 94 1016.3
20260906091633 69 0 0.0 0.0 0.00 0.00 0.00 94 1015.9
20260906090733 69 0 0.0 0.0 0.00 0.00 0.00 93 1016.0
20260906085833 69 0 0.0 0.0 0.00 0.00 0.00 93 1015.9
20260906084933 69 0 0.0 0.0 0.00 0.00 0.00 93 1015.9
20260906084033 69 0 0.0 0.0 0.00 0.00 0.00 93 1015.9
20260906083133 69 0 0.0 0.0 0.00 0.00 0.00 93 1015.9
20260906082233 70 0 0.0 0.0 0.00 0.00 0.00 93 1015.7
20260906081333 70 154 0.0 1.0 0.00 0.00 0.00 93 1015.6
20260906080433 70 155 0.0 5.0 0.00 0.00 0.00 93 1015.6
20260906075533 70 121 0.0 2.0 0.00 0.00 0.00 93 1015.5
20260906074633 70 122 0.0 2.0 0.00 0.00 0.00 93 1015.5
20260906073733 70 124 1.0 2.0 0.00 0.00 0.00 92 1015.5
20260906071932 71 130 0.0 1.0 0.00 0.00 0.00 92 1015.6
20260906071032 71 137 0.0 3.0 0.00 0.00 0.00 92 1015.7
20260906070132 71 154 0.0 2.0 0.00 0.00 0.00 92 1015.9
20260906065233 71 141 0.0 2.0 0.00 0.00 0.00 92 1015.9
20260906064332 71 125 0.0 2.0 0.00 0.00 0.00 92 1016.0
20260906063433 71 0 0.0 0.0 0.00 0.00 0.00 92 1016.1
20260906062532 71 120 0.0 1.0 0.00 0.00 0.00 92 1016.1
20260906055832 71 145 0.0 2.0 0.00 0.00 0.00 91 1016.1
20260906054932 71 126 0.0 3.0 0.00 0.00 0.00 91 1016.0
20260906054032 71 145 0.0 3.0 0.00 0.00 0.00 92 1016.0
20260906053132 71 142 0.0 4.0 0.00 0.00 0.00 91 1016.0
20260906052232 71 137 0.0 3.0 0.00 0.00 0.00 91 1016.0
20260906051332 72 138 1.0 3.0 0.00 0.00 0.00 91 1016.0
20260906050432 72 143 0.0 2.0 0.00 0.00 0.00 91 1016.0
20260906045532 72 131 0.0 3.0 0.00 0.00 0.00 90 1016.1
20260906044632 72 149 0.0 1.0 0.00 0.00 0.00 90 1016.2
20260906043732 72 150 0.0 2.0 0.00 0.00 0.00 90 1016.3
20260906041932 73 120 0.0 3.0 0.00 0.00 0.00 90 1016.4
20260906041032 73 0 0.0 0.0 0.00 0.00 0.00 90 1016.3
20260906035232 73 139 1.0 4.0 0.00 0.00 0.00 90 1016.2
20260906034332 74 134 0.0 4.0 0.00 0.00 0.00 89 1016.4
20260906033432 74 150 1.0 4.0 0.00 0.00 0.00 89 1016.3
20260906032532 74 171 0.0 3.0 0.00 0.00 0.00 89 1016.3
20260906031632 74 156 0.0 3.0 0.00 0.00 0.00 89 1016.2
20260906030732 74 147 0.0 4.0 0.00 0.00 0.00 89 1016.4
20260906025832 74 148 0.0 2.0 0.00 0.00 0.00 88 1016.4
20260906024932 74 173 0.0 2.0 0.00 0.00 0.00 88 1016.4
20260906023132 74 178 0.0 1.0 0.00 0.00 0.00 87 1016.3
20260906021332 75 0 0.0 0.0 0.00 0.00 0.00 85 1016.2
20260906020432 75 0 0.0 0.0 0.00 0.00 0.00 85 1016.1
20260906015531 75 0 0.0 0.0 0.00 0.00 0.00 84 1015.8
20260906014631 75 178 0.0 1.0 0.00 0.00 0.00 84 1015.5
20260906013731 76 178 0.0 2.0 0.00 0.00 0.00 83 1015.1
20260906012832 76 178 0.0 3.0 0.00 0.00 0.00 82 1014.8
20260906011932 76 182 0.0 3.0 0.00 0.00 0.00 82 1014.5
20260906011031 77 175 1.0 3.0 0.00 0.00 0.00 80 1014.4
20260906010131 78 156 0.0 2.0 0.00 0.00 0.00 79 1014.2
20260906005231 78 171 1.0 5.0 0.00 0.00 0.00 78 1014.1
20260906003431 80 175 2.0 6.0 0.00 0.00 0.00 74 1013.9
20260906001631 83 177 1.0 7.0 0.00 0.00 0.00 69 1013.8
20260905235831 84 175 0.0 3.0 0.00 0.00 0.00 67 1013.9
20260905234931 85 173 0.0 3.0 0.00 0.00 0.00 64 1013.9
20260905233131 86 95 0.0 4.0 0.00 0.00 0.00 65 1013.8
20260905232231 86 107 0.0 4.0 0.00 0.00 0.00 64 1013.7
20260905230431 86 67 1.0 5.0 0.00 0.00 0.00 64 1013.8
20260905225531 86 89 1.0 4.0 0.00 0.00 0.00 65 1013.7
20260905223731 86 72 1.0 5.0 0.00 0.00 0.00 64 1013.5
20260905222831 86 63 2.0 7.0 0.00 0.00 0.00 65 1013.5
20260905221931 86 62 2.0 7.0 0.00 0.00 0.00 65 1013.3
20260905220131 86 87 2.0 9.0 0.00 0.00 0.00 65 1013.3
20260905215231 86 88 2.0 9.0 0.00 0.00 0.00 65 1013.4
20260905214331 85 100 2.0 8.0 0.00 0.00 0.00 65 1013.1
20260905213431 85 68 3.0 12.0 0.00 0.00 0.00 68 1013.2
20260905212531 85 54 3.0 12.0 0.00 0.00 0.00 68 1013.3
20260905211631 84 58 3.0 8.0 0.00 0.00 0.00 71 1013.4
20260905210731 84 57 3.0 10.0 0.00 0.00 0.00 71 1013.6
20260905204931 83 40 4.0 11.0 0.00 0.00 0.00 74 1013.9
20260905204030 83 39 5.0 11.0 0.00 0.00 0.00 74 1014.1
20260905203130 83 46 2.0 10.0 0.00 0.00 0.00 74 1014.4
20260905202230 82 43 3.0 10.0 0.00 0.00 0.00 77 1014.5
20260905200431 81 42 3.0 11.0 0.00 0.00 0.00 79 1014.7
20260905195531 80 33 4.0 11.0 0.00 0.00 0.00 80 1014.9
20260905194630 80 51 3.0 9.0 0.00 0.00 0.00 81 1015.2
20260905192830 79 35 4.0 9.0 0.00 0.00 0.00 81 1015.1
20260905190130 78 26 2.0 7.0 0.00 0.00 0.00 83 1015.5
20260905185234 77 53 3.0 11.0 0.00 0.00 0.00 84 1015.5
20260905184330 77 51 4.0 11.0 0.00 0.00 0.00 85 1015.3
20260905181630 74 90 1.0 6.0 0.00 0.00 0.00 92 1015.8
20260905180730 72 127 1.0 3.0 0.00 0.00 0.00 93 1016.2
20260905175830 71 151 1.0 3.0 0.00 0.00 0.00 93 1016.5
20260905174930 71 137 1.0 6.0 0.00 0.00 0.00 94 1016.7
20260905174030 70 149 2.0 6.0 0.00 0.00 0.00 95 1016.8
20260905173130 70 151 2.0 6.0 0.00 0.00 0.00 95 1016.9
20260905172230 69 139 1.0 6.0 0.00 0.00 0.00 95 1016.8
20260905171330 69 122 1.0 4.0 0.00 0.00 0.00 96 1016.9
20260905170430 69 113 1.0 6.0 0.00 0.00 0.00 96 1016.9
20260905165530 69 131 1.0 3.0 0.00 0.00 0.00 96 1016.9